Location: Florence
(33.9745°N, 118.2481°W)
Time: 20:03:53
(UTC+00:00)

Cosmos 1633 Rocket - Pass Details

Date: 23 March 2023
Orbit: 605 x 622 km, 82.5° (Epoch: 06 June)

Event Time Altitude Azimuth Distance (km) Brightness Sun altitude
Rises 13:11:55 0° 359° (N) 2,907 6.6 -9.3°
Reaches altitude 10° 13:14:12 10° 5° (N) 1,996 5.8 -8.8°
Maximum altitude 13:18:31 51° 81° (E) 782 4.1 -7.9°
Drops below altitude 10° 13:22:47 10° 158° (SSE) 1,977 5.9 -7.0°
Sets 13:25:03 0° 163° (SSE) 2,876 6.6 -6.6°
